Location: Lombray
(49.5154°N, 3.1089°E)
Time: 20:54:15
(UTC+00:00)

CZ-2C R/B - Pass Details

Date: 15 May 2026
Orbit: 703 x 901 km, 98.2° (Epoch: 8 June)

Event Time Altitude Azimuth Distance (km) Brightness Sun altitude
Rises 22:59:49 0° 19° (NNE) 3,503 7.4 -20.7°
Reaches altitude 10° 23:02:24 10° 27° (NNE) 2,574 6.4 -20.8°
Maximum altitude 23:07:47 39° 96° (E) 1,329 4.1 -21.0°
Enters shadow 23:09:27 32° 132° (SE) 1,497 4.1 -21.0°
